Theta_e
290 290 290 290 290 290 289 289 289 289 289 288 288 288 288 288 288 288 288 288 288 289 289 288 287 286 285 284 283 283 282 282 283 283 283 284 283 283 283 282 281 279 277 275 275 275 275 275 275 275 274 274 274 275 275 275 275 275 275 276 276 277 278 279 280 281 282 283 285 287 289 292 293 294 295 295 296 296 296 294 294 295 297 300 303
290 290 290 290 290 289 289 289 289 288 288 288 288 288 288 288 288 288 288 288 289 289 288 288 287 286 285 284 283 282 282 283 283 283 283 283 283 282 281 280 278 277 275 274 274 274 274 274 274 274 274 274 274 274 275 275 275 276 276 276 277 277 278 279 280 281 283 284 285 287 289 291 293 294 295 296 296 297 297 295 294 295 296 298 301
290 290 290 290 289 289 289 288 288 288 288 288 288 287 287 288 288 288 288 288 288 288 288 287 286 285 284 283 283 282 283 283 283 283 283 283 283 282 280 278 276 275 274 274 273 274 274 274 274 274 274 274 274 274 274 274 275 276 276 276 277 277 278 279 280 282 284 285 287 288 289 292 293 294 295 296 296 297 297 296 294 295 297 297 301
290 290 290 289 289 288 288 288 288 288 288 288 287 287 287 288 288 288 288 288 288 288 287 286 285 284 283 283 283 283 283 283 283 283 283 283 282 281 279 277 275 274 273 273 273 273 273 273 273 274 274 274 274 274 274 274 275 275 276 276 277 278 278 279 280 282 283 285 286 288 290 291 292 293 295 296 297 297 297 296 294 295 297 298 301
290 290 289 289 289 288 288 288 288 288 288 288 287 287 287 288 288 288 288 288 287 287 286 285 284 284 283 283 283 283 283 283 283 283 283 282 282 280 278 276 274 273 272 272 272 272 272 273 273 274 274 274 274 274 275 275 275 275 276 276 277 278 279 280 281 282 284 285 286 287 289 290 291 293 294 295 296 297 296 295 294 295 297 299 301
290 289 289 288 288 288 288 288 288 288 288 288 287 287 288 288 288 288 288 287 287 286 285 285 284 283 283 283 283 283 283 283 283 282 282 282 281 280 277 275 273 272 272 271 271 272 272 273 273 274 274 274 275 275 276 276 276 276 276 276 276 277 279 280 282 283 285 287 287 287 288 290 292 293 294 295 296 296 296 295 294 295 298 299 301
289 289 289 288 288 288 288 288 288 288 288 287 287 287 288 288 288 288 287 287 286 285 285 284 284 283 283 282 283 283 283 283 282 282 281 281 281 279 277 274 272 272 272 272 272 272 273 273 274 274 274 275 275 276 276 276 276 276 276 276 276 277 278 279 281 282 284 286 288 288 288 289 292 293 293 294 295 295 295 295 295 296 299 300 300
289 289 288 288 288 288 288 288 288 287 287 287 287 288 288 288 288 287 286 286 286 285 284 284 283 283 282 282 283 283 283 282 282 281 281 281 280 278 274 273 272 272 272 273 273 274 274 274 275 275 275 275 276 276 277 277 277 277 277 277 276 277 277 278 279 280 282 284 287 289 290 291 292 293 293 294 295 295 295 295 295 297 299 301 300
289 288 288 288 288 288 288 288 287 287 287 287 287 288 288 288 287 286 286 286 285 284 284 283 283 282 282 282 282 282 282 282 282 281 281 280 278 275 272 272 272 273 273 274 274 275 275 276 276 276 276 276 277 277 278 278 277 277 277 277 277 277 277 278 279 279 281 283 286 289 291 292 293 293 293 294 295 295 295 295 295 296 298 301 301
288 288 288 287 288 288 288 287 287 287 287 287 288 288 287 287 286 286 286 285 285 284 283 283 282 282 282 282 282 282 282 282 282 281 281 279 276 273 272 273 273 274 274 275 276 276 276 277 277 277 277 277 278 278 278 278 278 278 278 278 277 278 278 278 279 280 280 282 285 289 292 292 292 293 293 294 294 295 295 295 295 296 298 301 302
288 288 287 287 288 288 287 287 287 287 287 287 287 287 287 286 286 285 285 285 284 284 283 283 282 282 282 282 282 282 282 282 281 281 281 279 275 273 273 274 274 275 275 276 276 277 277 277 278 278 278 278 278 278 279 279 279 279 279 279 279 279 279 279 279 280 281 282 284 288 291 292 292 292 293 293 294 294 294 295 295 296 298 301 302
288 287 287 287 287 287 287 287 287 287 287 287 287 287 286 285 285 285 285 284 284 283 283 282 281 281 281 281 281 282 282 282 281 281 281 279 276 274 274 275 275 276 276 276 277 277 277 278 278 278 278 278 279 279 279 279 279 279 279 279 280 280 280 280 281 281 281 282 283 286 289 291 292 292 292 293 293 293 294 294 295 296 298 300 302
287 287 287 287 287 287 287 287 287 287 287 287 287 286 286 285 285 285 284 284 283 283 282 281 281 281 281 281 281 281 282 282 281 281 281 279 276 274 275 275 275 276 276 276 276 276 277 277 277 277 278 278 279 279 279 280 280 280 279 279 280 280 280 281 282 282 282 283 284 285 287 290 291 291 292 292 292 293 293 293 294 295 296 298 301
287 287 287 287 287 287 287 287 287 287 287 287 286 286 285 285 285 285 284 283 283 282 281 281 281 281 281 281 281 281 282 282 281 281 281 279 276 275 275 275 275 276 275 275 275 276 276 276 277 277 278 278 279 280 280 280 280 280 280 279 279 279 280 281 282 283 284 284 284 285 287 289 290 291 291 291 292 293 293 293 293 294 295 297 299
287 287 287 287 287 287 287 287 287 287 287 286 286 285 285 285 285 284 283 283 282 281 281 280 280 280 280 280 281 281 282 281 281 281 280 278 275 275 275 275 275 275 275 275 275 275 276 276 277 277 278 278 279 279 280 280 280 280 280 279 279 279 280 281 282 283 284 285 285 286 287 288 290 290 290 291 292 292 293 293 293 293 295 296 298
287 287 287 287 287 287 287 287 287 287 287 286 285 285 285 285 284 283 283 282 281 280 280 280 280 280 280 280 280 281 281 281 280 280 279 277 275 275 275 274 274 275 275 275 275 275 275 276 276 277 277 278 279 279 280 280 281 281 280 280 280 280 280 282 283 283 284 285 286 287 288 289 289 290 290 291 291 292 292 292 292 293 294 294 297
287 287 287 287 287 287 287 287 287 287 286 285 285 285 285 284 284 283 282 282 281 280 279 279 279 279 280 280 280 280 281 280 280 279 278 275 274 274 274 274 274 274 275 275 275 275 276 276 276 277 278 278 279 279 280 281 281 281 281 280 280 280 281 282 283 283 284 285 286 287 287 288 289 289 290 291 291 292 291 291 292 293 293 293 296
287 287 287 287 287 287 287 287 287 286 285 285 285 285 284 284 283 282 282 281 280 279 279 279 279 279 279 280 280 280 280 280 279 279 277 274 274 274 274 274 274 275 275 275 275 275 276 276 276 277 277 278 279 279 280 281 281 281 281 281 281 281 281 282 283 284 284 285 286 286 287 288 289 289 290 291 291 291 291 291 292 292 293 293 295
287 287 287 287 287 287 287 287 286 286 285 285 284 284 284 283 282 282 281 280 279 279 278 278 279 279 279 280 280 279 279 279 279 278 276 274 274 274 274 275 275 275 275 275 275 275 275 276 276 276 277 278 279 280 281 281 282 282 282 281 281 281 282 282 284 285 285 286 286 287 287 288 289 289 290 290 291 291 291 291 292 292 293 295 296
287 287 287 287 287 287 287 286 286 285 285 284 284 284 283 282 282 281 280 279 279 278 278 278 278 278 279 279 279 279 278 279 278 277 276 274 274 274 275 275 275 275 275 275 275 275 275 275 275 276 277 277 278 279 280 281 282 283 283 282 282 282 282 282 283 284 285 286 287 287 288 289 289 289 290 290 290 291 292 292 292 293 294 296 298
287 287 287 287 287 287 287 286 285 284 284 284 284 284 283 282 281 280 279 279 278 278 277 277 278 278 278 278 279 278 278 278 278 277 275 274 273 274 275 275 275 275 275 274 274 274 274 274 275 275 276 277 278 279 279 281 282 283 283 283 283 283 283 283 284 284 284 285 286 287 288 288 289 289 290 290 291 291 292 292 294 295 296 298 300
287 287 287 287 287 287 286 285 285 284 284 284 283 283 282 281 280 279 279 278 278 277 277 277 277 278 278 278 278 277 277 277 277 276 274 273 273 274 275 275 275 275 274 274 273 273 274 274 274 275 276 277 278 279 279 280 281 282 283 284 284 284 283 284 284 285 285 285 286 286 287 288 288 289 290 291 291 292 293 294 295 297 298 300 302
287 287 287 287 287 286 286 285 284 284 284 283 283 282 281 280 280 279 278 277 277 277 277 277 277 277 277 277 277 277 277 276 276 275 273 273 273 274 274 274 274 274 273 273 273 273 273 273 274 275 276 278 279 279 280 280 281 282 283 284 284 284 284 284 285 285 286 286 286 287 287 287 288 289 290 291 292 292 293 295 296 299 300 302 303
287 287 287 287 286 286 285 284 284 284 284 283 282 281 280 279 279 278 277 277 277 277 276 276 276 276 276 276 276 276 276 276 276 274 273 272 273 273 273 274 273 273 272 272 272 272 273 274 275 276 277 279 280 281 281 282 282 282 283 284 285 285 285 285 285 285 286 286 287 287 288 288 289 290 291 292 292 293 294 296 297 299 300 301 303
287 287 287 287 286 285 284 284 283 283 283 283 282 281 280 279 278 277 277 277 277 276 276 275 275 275 275 275 275 275 275 275 275 273 272 272 272 272 273 272 272 272 272 271 272 272 273 274 276 277 279 280 281 283 284 285 284 284 284 285 285 285 285 285 285 286 286 287 288 288 288 288 289 290 291 292 292 293 295 297 299 300 301 302 304
287 287 286 286 285 284 283 283 283 283 282 282 281 280 279 278 278 277 277 276 276 276 275 275 274 274 275 275 274 275 275 274 273 272 272 272 272 272 272 271 271 272 271 271 271 272 273 275 277 278 280 281 282 283 284 285 286 285 285 285 285 286 286 286 286 286 286 287 288 288 289 289 289 290 291 292 293 294 296 298 300 301 302 303 304
287 287 286 286 284 283 283 282 282 282 282 281 280 279 279 278 277 277 276 276 276 275 275 274 274 274 274 274 274 274 274 273 272 271 271 271 272 271 271 271 271 271 271 271 272 272 274 276 277 278 279 281 282 283 283 284 285 286 286 286 286 286 286 286 286 286 287 287 288 289 289 290 290 291 291 292 293 295 297 299 300 301 303 304 305
287 286 286 285 283 283 282 282 282 281 281 280 280 279 278 277 277 276 276 276 275 274 274 273 273 273 273 273 272 273 273 272 271 271 271 271 271 271 270 270 270 270 270 271 272 274 275 276 277 278 279 281 282 283 284 284 285 286 287 287 287 287 287 287 287 287 287 287 288 289 290 290 290 291 291 292 294 296 298 299 300 302 304 306 307
286 286 285 284 283 282 282 281 281 280 280 279 279 278 278 277 277 276 276 275 274 273 273 272 272 272 272 272 272 271 271 271 271 271 271 271 271 271 271 270 270 270 270 271 273 274 275 275 275 276 277 278 280 281 282 284 285 286 287 287 287 288 288 287 287 287 287 288 288 289 289 290 290 291 291 293 295 297 299 300 301 303 306 307 309
286 285 284 283 282 282 282 281 280 279 279 278 278 277 277 277 277 276 275 274 273 272 272 272 272 272 272 272 272 271 271 271 272 272 272 272 271 271 271 272 271 270 271 272 274 274 274 273 273 273 274 275 276 278 279 280 282 284 286 286 287 287 288 288 288 288 288 288 288 289 289 290 290 291 292 293 295 298 299 300 302 304 307 308 309
286 285 283 282 282 281 281 280 279 279 278 278 277 277 276 276 276 276 275 274 273 272 272 272 272 272 272 272 272 272 272 272 272 273 273 273 272 272 272 272 272 271 271 273 274 273 272 272 271 271 271 272 273 275 276 277 279 282 284 286 287 287 287 288 289 289 289 289 289 289 290 290 291 291 292 294 296 298 299 301 303 305 307 308 308
285 284 283 282 282 281 280 279 279 278 278 277 277 276 276 275 275 274 273 273 272 272 272 272 272 272 272 272 272 273 272 272 272 273 273 273 273 272 272 273 273 272 272 273 274 273 271 270 270 270 270 270 271 273 274 275 276 278 281 283 286 287 287 287 288 289 289 290 290 290 290 290 291 292 293 294 296 298 299 301 303 305 307 308 308
284 284 283 282 282 281 280 279 278 278 277 277 277 276 276 276 275 274 272 272 271 271 271 272 272 272 272 272 273 273 272 272 272 272 273 273 273 273 273 273 273 272 272 272 272 271 270 269 269 269 269 270 270 271 272 273 275 276 278 280 283 285 287 287 288 289 289 290 291 291 291 291 291 292 293 295 296 298 300 301 303 306 307 307 307
282 282 283 282 281 280 279 278 278 277 277 277 276 276 276 276 275 274 273 273 272 271 271 271 272 272 272 272 273 273 272 272 272 272 272 272 273 273 274 275 274 273 272 271 271 270 269 269 269 269 269 269 270 270 271 272 273 275 277 278 281 283 286 287 288 289 290 290 291 292 292 292 292 293 294 295 296 298 300 301 302 305 307 307 307
281 281 282 281 280 279 279 278 277 277 277 276 276 276 275 275 275 274 273 272 272 272 271 271 271 271 272 272 272 272 272 272 272 272 272 272 272 273 274 275 275 274 273 272 271 270 269 269 269 269 269 269 269 270 270 271 272 273 275 277 279 281 284 287 288 289 290 290 291 292 293 293 294 294 295 295 296 298 300 301 302 304 307 307 307
282 282 281 280 279 278 278 277 277 276 276 276 276 275 275 275 274 273 272 271 271 271 271 271 271 271 271 271 272 272 272 271 271 272 272 271 272 273 273 273 273 272 271 271 270 270 269 269 269 269 269 269 269 270 270 270 271 272 274 275 277 280 282 285 286 288 290 291 292 292 293 293 294 295 295 295 297 298 300 301 302 304 306 307 307
283 282 281 280 278 278 277 277 276 276 276 276 275 275 274 274 273 272 271 271 270 270 270 271 271 271 271 271 272 272 272 271 271 271 272 272 272 272 272 272 271 270 270 269 270 270 270 269 269 269 269 269 269 269 270 270 271 271 273 274 276 278 280 282 284 286 289 291 292 292 293 293 294 295 295 295 296 298 299 301 302 303 305 305 305
281 281 280 279 278 277 277 276 276 276 275 275 275 274 274 273 273 272 271 270 270 270 270 270 270 271 271 271 271 271 271 270 271 272 272 272 272 271 271 271 270 270 270 269 269 269 270 269 269 269 269 269 269 269 270 270 270 271 272 274 276 277 279 281 283 285 288 290 291 292 293 293 293 294 295 295 296 298 299 300 301 302 304 305 305
279 278 278 277 277 277 276 276 275 275 275 275 274 274 273 273 272 271 270 270 270 270 270 270 270 270 270 270 271 270 270 270 271 271 271 271 270 270 270 270 270 270 270 270 270 270 270 269 269 269 269 269 269 269 269 270 270 270 271 272 274 277 278 280 282 284 287 289 291 292 293 292 293 294 295 296 296 297 299 300 301 302 303 304 305
280 278 277 276 276 276 275 275 275 275 274 274 273 273 273 272 272 271 270 270 270 269 269 269 270 269 269 270 269 269 269 269 270 270 270 270 270 270 270 270 270 270 270 270 270 270 270 269 269 269 269 269 269 269 269 269 270 270 270 271 273 275 277 279 280 283 285 287 290 291 292 293 293 293 294 295 296 297 299 300 301 301 303 304 304
280 279 277 276 276 275 275 274 274 274 274 273 273 273 273 272 271 271 270 270 269 269 269 269 269 269 269 269 269 268 268 269 269 269 269 269 269 269 269 269 269 269 269 269 270 270 270 270 269 269 270 270 269 269 269 270 270 270 270 271 272 274 276 278 280 281 284 286 288 290 291 293 293 293 294 295 296 297 298 299 300 301 302 303 304
279 279 278 276 276 275 275 274 274 273 273 273 272 272 272 272 271 270 270 270 269 269 269 269 269 269 269 269 269 269 269 269 269 269 269 269 269 269 269 269 269 269 269 269 269 270 270 270 270 269 269 270 270 269 269 270 270 270 270 270 271 272 275 277 279 281 283 285 287 289 290 292 293 293 293 295 296 297 298 299 300 301 301 302 303
278 277 277 276 275 275 274 273 273 273 272 272 272 272 272 271 271 270 270 270 269 269 269 269 269 269 269 269 269 269 269 269 269 269 269 269 269 269 269 269 269 269 270 270 270 270 270 270 270 269 269 270 270 270 269 270 270 270 270 270 270 271 273 276 278 281 283 285 287 288 290 291 292 293 294 294 295 297 298 298 299 300 301 301 302
277 276 276 275 275 274 273 273 272 272 272 272 272 272 272 271 270 270 269 269 269 269 269 269 269 269 269 269 269 269 269 269 269 268 268 269 269 268 269 269 269 269 270 270 270 270 270 270 270 270 269 270 270 270 270 271 271 270 270 270 270 270 272 274 276 279 281 283 286 288 289 290 292 293 294 294 295 296 297 298 299 299 300 300 301
276 276 275 275 274 274 273 272 272 272 272 272 272 272 271 271 270 269 269 269 269 269 269 269 269 269 269 269 269 269 269 269 269 268 268 269 268 268 268 268 268 269 269 270 270 270 270 270 270 270 270 270 270 270 270 271 272 271 270 270 270 270 271 273 275 277 279 281 284 286 288 290 291 292 293 294 295 295 297 298 299 299 300 300 300
276 275 275 275 274 273 272 272 272 271 271 272 272 272 271 270 270 269 269 269 269 269 269 269 269 269 269 269 269 269 269 269 269 269 269 268 268 268 268 268 268 268 269 269 270 270 270 270 270 270 269 270 270 270 270 271 272 272 271 271 270 270 271 273 275 277 278 280 282 285 287 289 291 292 293 294 294 295 296 297 298 299 299 300 300
274 274 274 274 274 273 272 272 271 271 271 272 272 271 271 270 269 269 269 269 269 269 269 269 269 269 269 269 269 269 269 269 269 269 269 268 268 268 268 268 268 268 268 269 269 270 270 270 270 270 270 269 270 270 270 270 271 272 273 272 271 271 272 273 275 277 278 279 281 284 286 289 291 292 292 293 294 295 296 297 298 298 299 300 300
274 274 274 273 273 272 272 271 271 271 271 271 271 271 270 270 269 269 269 269 269 269 269 269 269 269 269 269 269 269 269 269 269 269 269 269 268 268 268 268 268 268 268 269 269 269 270 270 270 270 270 270 270 270 270 270 270 271 273 273 273 272 273 274 275 276 278 280 282 283 285 288 290 292 292 293 294 294 295 296 297 298 298 299 300
273 274 273 273 272 272 271 271 271 271 271 271 271 270 270 269 269 269 269 269 269 269 269 269 269 269 269 269 269 269 269 269 269 269 269 269 269 268 268 268 268 268 268 268 269 269 269 270 270 270 270 270 270 270 270 270 270 270 271 273 273 274 274 275 275 276 278 280 281 283 285 287 289 291 292 293 294 294 295 296 297 297 298 298 299
273 273 273 272 272 271 271 271 271 271 271 271 271 270 270 269 269 269 269 269 269 269 269 269 269 269 269 269 269 269 269 269 269 269 269 269 269 269 269 269 269 268 268 268 268 269 269 270 270 270 270 270 270 270 270 270 270 270 271 272 273 274 275 275 275 276 278 279 281 283 285 287 288 290 291 293 293 294 295 295 296 297 298 298 298
272 272 272 272 271 271 271 271 271 271 271 270 270 270 269 269 269 269 269 269 269 269 269 269 269 269 269 269 269 269 269 269 269 269 269 269 269 269 269 269 269 269 268 268 268 269 269 269 270 270 270 270 270 269 270 270 270 270 270 271 272 274 275 275 276 277 278 279 280 282 284 285 287 288 290 291 293 294 294 295 295 296 297 298 298
Wind_Speed
47 44 40 37 34 31 29 26 24 22 21 21 21 21 21 22 22 23 24 26 29 32 36 40 42 43 43 41 40 40 40 40 41 42 44 45 47 47 47 46 45 44 39 30 25 28 34 35 35 33 30 31 33 33 33 33 35 37 38 39 40 40 40 41 46 52 48 42 44 42 37 36 37 36 35 36 36 37 42 44 41 38 40 43 45
48 44 40 37 34 31 28 25 23 22 21 21 21 21 21 21 22 23 25 27 30 34 38 40 41 42 41 40 39 40 41 41 41 43 44 46 46 46 46 45 42 39 32 28 27 29 31 33 34 31 28 31 33 33 35 35 35 38 38 38 40 40 39 40 44 48 47 41 40 41 37 37 38 37 36 36 35 35 37 41 41 39 38 43 44
48 44 40 36 33 30 28 25 23 22 21 20 20 20 20 21 22 24 26 28 32 36 38 39 40 40 39 39 39 40 41 42 42 43 44 46 46 46 45 42 37 32 27 27 30 30 30 31 31 29 29 30 32 33 35 35 35 37 39 39 41 41 39 40 42 46 47 42 37 38 37 37 39 38 36 35 35 34 33 36 41 39 38 42 43
47 43 39 36 33 30 27 24 23 22 21 20 20 20 20 21 23 25 27 30 33 36 37 38 38 38 38 38 39 40 41 42 43 43 44 45 46 45 44 41 34 30 27 28 32 31 30 32 32 31 32 32 33 33 33 34 35 37 39 39 41 41 39 41 43 44 46 45 41 38 39 43 44 40 37 35 33 33 32 36 42 40 37 41 43
47 43 39 35 32 29 26 24 23 21 20 20 20 19 20 21 23 26 28 31 34 35 36 36 36 36 37 38 39 40 41 42 42 43 43 44 45 44 44 39 33 34 34 31 32 33 32 35 35 35 35 35 34 34 33 34 33 33 36 38 38 40 39 40 43 44 44 44 43 43 45 46 46 41 36 33 32 33 34 39 43 40 37 39 42
46 42 38 35 32 28 26 24 22 21 20 20 19 19 20 21 24 26 29 31 33 33 33 34 34 35 36 37 39 39 40 42 42 42 42 43 44 44 43 37 33 36 37 33 34 36 35 37 38 38 39 39 38 37 37 36 33 33 36 38 38 40 41 40 39 40 43 41 40 45 50 48 45 43 39 33 32 33 35 42 45 40 37 38 40
45 41 38 34 31 28 26 23 22 21 20 19 19 19 20 22 24 26 28 30 31 31 32 32 33 35 36 36 38 39 40 41 41 41 41 42 43 42 41 37 35 37 36 34 36 39 39 41 42 42 42 42 42 41 39 37 37 38 39 38 37 39 43 45 41 38 41 41 38 44 52 51 45 43 41 35 32 34 36 41 44 39 35 36 39
44 40 37 33 30 27 25 23 22 20 19 19 19 20 21 22 24 26 27 29 29 29 30 31 33 34 35 36 37 38 39 40 40 40 40 41 41 40 39 38 37 38 38 38 39 41 42 44 44 44 44 44 44 44 42 40 41 43 42 38 36 36 41 47 48 46 44 40 37 41 46 46 44 42 39 34 34 36 36 37 40 39 35 34 39
43 39 36 33 29 27 25 23 21 20 19 19 19 20 21 23 24 25 26 27 28 28 29 30 32 33 34 35 36 37 38 39 39 39 40 39 38 37 38 37 37 39 42 44 44 44 44 44 44 44 46 47 46 46 47 45 44 47 48 43 37 36 37 41 46 51 52 44 38 38 40 40 40 38 33 29 32 34 33 33 36 38 35 33 38
42 39 35 32 29 27 24 22 21 19 19 19 19 20 21 22 23 23 25 26 26 27 28 29 31 32 34 34 35 36 37 38 38 38 38 36 34 35 37 38 39 42 45 47 48 47 46 45 44 44 46 49 48 47 48 47 46 47 49 47 42 40 39 40 41 45 50 49 40 35 36 35 32 29 27 27 29 29 29 31 34 37 34 34 39
41 38 35 32 29 26 24 22 20 19 19 19 19 20 21 21 22 23 24 25 25 26 28 29 30 31 33 34 34 35 36 36 37 37 36 33 31 32 36 39 41 42 43 44 46 46 44 43 42 42 45 47 47 47 47 46 45 45 46 46 46 44 43 46 46 43 45 48 43 34 31 30 26 24 24 24 26 28 29 30 32 34 33 33 39
41 38 35 31 28 25 23 21 19 19 18 19 19 20 20 20 21 23 23 24 25 26 27 28 29 30 32 34 34 34 35 35 35 36 36 33 30 31 35 39 41 42 42 41 42 42 41 40 39 39 41 43 44 46 48 47 45 44 43 43 44 45 44 46 48 47 45 46 45 38 31 25 24 24 22 21 26 30 31 30 30 31 32 33 38
41 38 34 31 28 25 22 20 19 18 18 18 19 19 19 19 21 22 23 23 24 25 26 27 28 30 32 33 34 34 34 34 35 36 37 34 31 31 35 38 39 40 40 39 40 40 39 39 39 40 41 41 42 45 48 48 46 45 43 41 41 43 43 43 45 47 47 45 44 42 34 26 24 23 21 23 30 33 34 34 33 33 34 34 35
40 37 33 30 27 24 22 20 18 18 18 18 18 18 18 19 21 22 22 23 25 25 26 27 27 29 31 33 34 34 34 34 35 37 37 35 32 33 36 37 37 38 37 37 38 39 38 38 39 40 39 39 39 42 45 47 46 44 42 41 40 38 38 39 39 41 43 44 45 45 39 34 31 26 23 28 34 35 36 37 36 37 39 38 36
40 36 33 29 26 23 21 19 18 17 17 17 17 16 18 19 20 21 21 22 24 25 26 27 27 28 30 32 34 35 34 35 36 37 36 35 33 34 35 36 36 36 36 37 37 38 37 37 38 39 40 39 39 40 42 43 42 41 41 41 38 35 34 35 35 35 38 40 42 42 39 37 35 31 29 33 35 36 37 36 36 38 40 40 40
39 35 31 28 25 22 20 19 18 17 16 16 16 16 17 19 19 20 21 22 24 25 26 27 28 29 30 31 34 35 35 35 35 36 36 34 33 34 35 36 37 37 37 37 37 37 37 37 38 40 40 41 40 39 39 39 39 39 41 43 40 35 33 33 33 35 37 39 39 38 35 34 33 34 36 37 37 37 36 36 37 38 37 40 43
38 34 30 27 24 22 20 18 17 16 15 15 15 16 17 18 19 20 21 22 23 24 25 26 27 28 30 31 33 35 35 34 35 36 36 33 33 35 36 38 39 39 39 38 38 38 37 36 38 39 41 41 41 39 38 38 38 39 40 41 40 37 34 31 32 35 38 40 42 41 39 36 35 37 38 37 37 36 34 36 39 37 34 38 42
37 33 29 26 23 21 19 17 16 15 15 14 15 16 17 17 18 19 21 22 23 24 25 26 27 28 30 31 32 35 36 36 36 36 35 33 32 34 37 40 42 41 40 39 38 38 39 39 38 39 41 41 40 39 38 38 38 37 38 38 37 36 35 31 29 31 34 38 41 42 42 41 40 40 39 37 37 35 35 39 41 37 36 40 42
36 32 28 25 22 20 18 16 15 14 14 14 15 16 16 17 18 19 21 22 23 24 25 26 27 28 29 31 32 34 36 37 37 36 36 33 32 34 38 40 43 42 41 40 40 40 41 41 40 39 39 38 38 38 37 37 37 37 38 38 37 36 34 31 28 26 26 30 34 37 40 43 42 41 40 40 39 39 40 42 42 40 41 43 42
35 31 27 24 22 19 17 15 14 13 13 13 15 16 16 17 18 19 20 22 23 24 25 26 27 28 29 31 33 34 36 37 38 37 36 34 33 35 37 39 42 42 42 42 43 42 42 42 42 40 37 36 36 37 36 35 36 37 37 39 40 38 33 30 29 27 25 25 27 29 33 39 42 41 41 41 40 41 42 43 42 42 44 44 41
33 30 27 24 21 19 16 14 13 12 12 12 14 16 17 18 18 19 20 22 23 24 24 25 27 27 29 31 33 35 35 37 38 37 36 35 34 34 36 37 39 42 43 43 43 42 41 41 42 41 38 37 36 35 35 35 34 35 35 37 40 38 33 30 29 28 27 28 29 31 34 39 41 42 42 41 41 42 42 43 42 42 44 43 41
32 29 26 23 21 18 16 14 12 11 11 12 14 15 17 18 19 20 21 22 23 23 24 25 27 28 29 31 33 35 35 35 37 37 37 36 34 34 35 36 37 40 42 43 42 41 40 40 42 43 41 40 38 36 35 34 34 34 34 34 35 34 33 32 30 27 26 26 27 30 34 38 40 41 42 42 42 42 41 42 42 40 41 42 41
31 28 25 22 20 17 15 13 11 10 10 11 12 14 16 18 19 20 21 22 23 23 24 26 27 29 31 32 33 35 35 35 36 38 38 37 35 35 35 36 37 37 39 41 41 41 39 39 44 47 45 43 42 41 39 37 36 36 34 31 30 30 31 32 31 29 26 24 25 27 29 33 36 39 42 43 42 41 40 40 39 37 38 41 42
30 27 24 22 19 16 14 12 11 10 9 10 11 13 15 17 18 20 20 21 23 23 24 26 27 30 32 34 34 35 36 37 37 38 38 37 36 36 37 37 38 37 36 38 39 39 39 42 45 46 43 41 40 39 37 35 35 35 34 31 29 29 30 30 30 29 27 26 26 27 28 31 35 37 41 42 40 39 39 38 36 34 36 39 42
30 27 24 21 18 16 14 12 10 9 9 9 10 12 14 15 17 18 19 20 22 23 24 26 28 30 32 34 35 35 36 37 37 38 39 38 36 37 38 40 41 40 37 37 37 36 39 43 43 39 36 35 33 29 28 29 30 30 30 30 30 29 30 30 29 29 28 26 26 28 29 31 34 35 38 38 37 37 37 35 31 30 33 35 40
30 26 23 20 18 16 14 12 10 9 8 8 9 11 13 15 16 17 18 19 21 22 24 26 27 29 31 33 34 35 36 37 38 39 41 41 39 39 40 44 45 43 39 38 36 37 40 40 37 33 30 29 26 22 22 24 24 22 23 26 28 29 29 29 28 29 28 26 26 28 29 30 31 32 34 34 35 36 34 30 26 26 30 33 38
29 26 23 20 18 16 14 11 9 8 8 8 9 10 12 14 15 16 17 18 20 21 23 25 26 28 30 32 33 34 35 36 38 40 41 42 42 41 42 45 46 44 42 40 38 38 39 37 32 29 26 23 19 15 14 18 22 23 23 24 24 25 27 29 29 29 28 27 26 28 30 30 30 31 32 33 34 34 29 26 24 25 29 32 34
28 25 22 19 18 16 13 10 8 7 7 8 9 10 11 12 14 15 16 18 20 21 22 23 24 26 28 30 31 32 33 35 36 38 39 40 41 42 43 43 43 42 41 39 36 37 37 34 31 28 25 22 18 13 11 11 14 18 22 23 23 21 22 25 28 30 30 30 30 30 31 32 33 34 33 32 32 30 25 23 25 27 29 31 32
28 24 22 20 18 15 12 10 8 6 7 8 8 9 10 11 12 14 15 16 18 19 20 21 22 24 25 27 28 30 32 34 34 34 34 35 36 38 39 39 37 37 37 35 34 36 36 35 34 34 31 28 25 22 18 15 11 11 13 17 21 22 20 21 24 27 29 30 30 31 30 32 35 34 33 31 29 24 21 23 26 28 31 33 36
28 24 22 20 18 15 12 10 8 7 6 7 8 9 10 10 10 11 12 13 14 15 16 17 18 20 22 23 24 25 27 29 31 31 32 33 33 34 35 34 32 33 34 33 32 33 35 37 38 38 38 36 33 29 27 24 18 13 10 10 14 18 21 22 21 22 24 26 29 30 30 31 32 32 30 29 24 19 20 24 27 31 34 36 40
27 24 22 20 18 15 13 11 9 8 7 6 6 8 9 10 10 10 11 11 11 12 13 14 15 17 19 21 22 22 22 25 28 29 30 31 32 33 33 32 31 31 32 32 32 33 36 40 41 42 41 40 38 35 32 30 26 20 15 11 10 12 15 17 18 19 21 23 25 28 28 29 30 30 29 26 21 18 21 25 29 34 37 39 43
25 24 23 20 18 16 14 12 11 9 8 6 5 5 5 7 9 10 11 12 12 11 11 13 14 15 16 18 21 22 23 24 26 27 29 30 32 33 32 30 30 30 30 31 32 35 39 42 43 44 44 43 41 38 35 33 30 26 21 16 12 11 12 13 14 17 20 22 23 25 28 29 30 29 27 23 19 18 21 25 31 37 38 39 44
24 23 22 20 18 16 15 13 11 9 8 6 5 5 4 3 3 3 4 8 10 11 12 13 14 15 16 17 19 20 22 24 25 27 28 29 31 32 31 30 29 30 32 34 36 39 42 43 43 44 45 45 44 41 38 36 33 29 26 23 18 14 13 13 14 14 17 20 22 24 27 29 28 26 24 21 16 16 22 25 29 38 40 37 42
24 22 20 19 17 16 15 13 11 9 7 6 5 4 3 3 2 1 1 2 3 5 8 12 13 14 16 18 19 20 21 24 26 27 28 29 31 31 31 31 31 33 36 39 41 42 44 45 44 44 45 45 45 43 40 38 36 33 29 26 22 18 15 13 13 12 13 17 20 22 23 25 25 23 22 20 15 15 23 26 26 35 41 38 39
26 23 21 19 18 16 15 13 10 9 7 5 4 3 3 3 3 4 4 5 5 6 8 11 13 15 16 18 19 20 21 23 25 26 27 29 31 31 32 34 37 38 40 41 42 43 45 45 45 45 44 45 46 45 43 41 39 36 33 29 26 22 18 14 13 12 12 14 17 19 20 21 22 22 21 19 17 15 22 27 26 31 39 41 41
27 24 22 21 19 17 15 13 11 9 7 5 3 3 2 3 4 5 6 8 10 11 12 13 14 14 16 17 17 18 20 22 24 25 27 28 30 33 35 38 39 40 41 42 43 43 45 46 46 46 45 45 47 47 45 43 41 38 36 33 29 25 22 18 16 14 14 14 15 16 18 20 21 20 19 19 19 17 21 27 27 28 36 41 42
26 24 23 22 20 18 16 13 12 10 7 5 4 2 1 2 4 5 7 8 10 12 13 14 14 14 15 16 17 18 20 22 22 22 24 26 29 33 35 37 38 39 41 43 44 44 45 46 47 47 46 46 47 48 47 45 44 41 38 35 31 28 25 21 19 16 14 15 15 15 16 18 20 20 19 18 20 20 21 26 28 28 33 39 40
24 23 22 21 19 18 16 14 12 10 8 6 4 2 1 1 3 4 6 8 9 11 13 15 16 17 18 18 18 20 22 21 21 21 23 26 30 34 36 36 37 38 40 42 43 44 45 46 47 48 48 47 47 49 49 47 46 44 42 38 34 30 26 22 19 17 14 14 15 15 15 16 18 19 19 18 20 22 22 25 28 28 31 38 41
26 24 23 21 19 18 16 14 12 10 8 6 5 3 2 1 2 3 5 6 8 10 11 13 15 18 19 20 20 21 22 23 24 25 27 29 32 35 36 36 36 37 38 40 42 43 44 46 47 49 49 49 48 50 50 49 49 47 45 42 38 33 29 26 22 19 15 14 15 15 15 14 15 18 19 19 20 23 24 25 28 30 30 36 43
28 26 25 22 20 19 17 15 12 11 9 7 6 4 3 2 2 2 3 5 7 8 10 12 14 16 18 20 21 22 22 23 25 26 27 29 31 33 35 36 36 37 38 39 41 42 44 46 47 49 50 51 51 52 51 50 50 50 48 45 41 37 33 30 26 22 19 16 15 15 15 14 13 14 18 20 20 23 25 26 28 31 32 35 41
27 26 25 23 21 19 17 15 13 11 9 8 7 5 4 3 2 2 3 4 5 7 9 11 12 14 16 17 19 20 20 22 23 24 26 27 29 31 33 34 35 36 38 39 40 41 43 45 47 48 50 51 52 53 53 53 52 52 50 47 44 41 36 32 28 25 21 18 16 16 15 15 14 13 15 19 21 23 25 27 28 30 33 36 40
27 26 25 23 21 19 17 15 14 12 10 9 8 6 5 4 3 3 3 3 4 5 7 9 10 12 13 14 15 16 17 19 21 22 24 25 27 29 31 32 33 34 35 36 38 39 41 43 46 48 50 52 53 54 56 55 54 52 50 49 48 46 41 36 31 27 23 20 18 17 16 15 15 14 14 17 21 23 25 26 28 31 33 36 40
26 25 24 22 21 19 17 15 14 13 11 10 8 6 5 4 4 3 3 3 3 4 5 7 8 9 11 12 13 14 15 17 18 20 22 24 25 27 28 30 31 32 32 33 36 38 39 42 45 47 49 52 54 54 54 54 53 52 51 51 51 48 44 39 34 30 25 22 19 18 17 15 15 16 15 15 19 23 25 27 28 31 33 36 38
27 26 25 23 21 20 18 16 15 13 12 10 9 7 6 5 4 4 3 3 3 3 4 5 6 8 9 10 11 12 14 15 17 19 21 22 24 25 26 28 29 31 32 33 34 36 38 41 43 45 48 52 54 55 54 54 54 54 54 54 52 49 45 41 37 33 29 25 21 18 17 16 16 16 17 16 17 22 26 28 29 31 33 35 37
28 27 25 24 22 20 19 17 15 14 12 11 9 8 7 6 5 4 4 3 3 3 4 5 6 7 8 10 11 12 13 15 16 18 20 21 23 24 25 26 28 30 31 32 33 35 37 39 42 45 48 51 55 56 55 54 55 55 55 55 53 49 44 39 35 31 27 25 22 19 17 16 16 17 17 16 16 20 25 28 30 31 33 35 37
28 26 24 23 21 20 19 17 16 14 13 11 10 8 8 7 6 5 4 3 2 3 3 5 6 7 8 9 11 12 13 14 16 17 19 20 22 22 23 24 26 27 29 31 32 33 35 38 40 43 46 49 53 56 57 57 57 56 55 54 52 48 43 37 32 28 25 24 22 20 17 16 15 16 18 17 16 19 24 28 31 33 34 35 37
27 25 23 21 20 20 18 17 16 15 13 12 10 9 8 7 7 6 4 3 2 2 3 4 5 6 7 9 10 11 12 14 15 17 18 20 21 22 23 24 25 26 28 29 31 32 34 36 39 42 44 47 50 55 58 60 58 55 54 54 53 48 42 36 31 27 24 22 20 19 17 15 14 14 17 18 18 19 23 27 30 32 35 37 38
27 25 23 21 20 19 19 18 16 15 13 12 10 9 9 8 7 6 5 3 2 2 2 3 4 6 7 8 9 10 11 13 14 16 17 19 20 21 22 23 25 27 27 29 30 32 33 35 37 40 43 46 49 52 56 59 59 57 55 54 53 49 43 37 32 28 25 21 18 16 15 14 13 13 15 18 18 19 21 26 29 31 34 36 38
27 25 23 22 20 19 18 17 16 15 13 12 11 10 9 8 7 6 5 3 2 1 2 3 4 5 6 7 8 9 10 12 13 15 16 18 19 21 22 23 25 26 27 28 30 31 32 33 35 38 41 45 48 50 52 55 58 59 56 53 51 50 45 40 35 30 26 22 19 15 12 11 10 11 14 17 18 18 20 25 28 30 32 34 37
26 24 22 21 20 19 18 17 16 15 13 12 11 11 10 9 7 6 5 3 2 2 2 2 3 4 4 5 7 8 10 11 13 14 16 17 19 20 21 23 24 26 27 29 29 30 31 32 34 36 39 43 46 48 49 50 53 57 57 53 50 50 48 45 40 34 28 24 21 17 12 9 7 8 11 15 18 19 20 23 26 29 31 33 35
26 24 22 21 20 19 18 17 16 15 14 13 12 11 10 9 8 6 5 4 3 2 2 2 3 3 4 5 6 8 9 11 12 14 15 17 18 20 21 23 25 26 28 29 30 30 31 31 32 35 38 40 44 47 47 46 49 53 55 53 51 49 49 48 45 40 34 28 24 20 15 11 7 5 7 12 16 18 20 22 24 27 30 32 33
Wind_Direction
224 225 227 228 230 232 235 239 244 250 257 262 268 274 279 284 290 296 302 306 309 308 308 308 309 310 311 313 314 315 315 317 317 316 314 312 311 310 310 307 304 301 293 281 273 276 277 276 276 273 267 265 265 265 265 262 261 261 259 259 258 256 256 256 260 266 265 262 262 261 259 260 263 263 262 266 267 270 276 273 272 271 256 245 243
223 224 226 227 229 231 233 238 244 250 256 263 269 275 280 287 294 299 304 307 308 308 308 309 309 310 312 314 316 316 317 319 318 317 315 314 313 311 309 306 301 296 287 277 275 276 275 274 274 273 268 266 266 265 266 265 264 264 261 260 260 257 256 255 258 264 266 265 262 259 258 257 260 263 263 266 268 270 275 275 276 277 262 248 245
222 223 225 226 227 229 233 237 243 249 256 263 269 276 282 290 296 301 305 307 307 308 309 310 310 312 315 316 317 318 319 320 319 318 317 315 314 313 310 305 298 291 283 278 279 279 276 273 273 276 274 271 270 269 269 270 268 266 263 261 261 261 258 256 257 261 265 267 265 260 256 256 259 263 263 265 268 268 272 277 280 278 263 249 246
222 223 224 225 226 228 232 237 243 249 256 262 269 277 284 292 297 301 304 306 307 308 310 311 312 314 316 317 318 319 320 320 319 319 319 317 315 313 310 304 295 289 285 281 282 282 278 278 279 282 283 279 275 273 273 275 275 274 271 265 262 262 260 258 257 258 262 264 263 259 255 257 262 264 262 262 265 267 269 275 282 281 266 250 246
220 222 223 223 225 227 231 236 242 249 255 262 270 278 286 293 296 300 304 306 308 310 311 312 314 316 317 318 319 320 319 319 320 321 320 317 315 312 308 302 293 292 292 286 287 287 281 282 285 286 287 283 278 276 277 277 276 276 277 273 266 263 263 262 258 256 259 260 261 259 255 259 266 265 262 263 266 270 272 276 281 282 272 256 248
220 220 221 222 224 226 230 236 242 249 256 263 271 279 286 291 295 300 304 307 310 311 312 314 316 317 318 319 320 319 320 321 322 322 320 317 315 312 307 301 293 296 295 287 289 292 286 284 286 287 288 286 282 281 281 280 275 273 276 277 273 267 262 262 261 260 260 260 262 259 255 260 268 267 265 265 266 270 276 280 282 283 276 262 251
218 219 220 221 222 226 231 237 243 250 257 264 272 279 285 290 295 301 306 308 311 312 313 316 317 318 319 319 320 320 321 323 324 323 320 318 316 312 308 304 298 298 296 289 289 293 291 288 288 288 288 287 286 285 282 280 277 276 276 275 275 271 264 258 259 263 265 264 265 261 256 259 264 265 265 264 266 270 275 281 282 283 279 263 255
217 217 218 219 221 226 231 237 243 251 258 265 273 280 285 291 297 304 308 310 312 313 315 317 318 318 319 319 321 322 323 324 325 323 322 320 318 313 309 305 300 297 295 293 292 293 293 292 289 286 287 288 288 288 286 282 278 278 278 275 271 271 270 263 258 260 264 267 271 266 258 258 260 262 264 262 265 270 273 278 280 283 282 267 260
216 216 216 217 220 225 230 237 244 251 259 267 275 280 286 293 301 306 309 310 312 314 316 317 317 318 319 321 322 324 324 325 325 325 325 324 319 312 305 300 297 297 298 300 300 299 296 294 289 283 285 291 292 290 289 286 280 276 277 276 269 264 271 270 262 259 259 263 274 271 258 254 256 256 257 259 265 270 274 278 278 281 283 275 266
214 214 215 216 220 224 230 237 244 252 261 268 275 282 289 297 304 308 309 310 312 314 316 317 318 319 320 321 323 324 324 326 326 327 328 325 317 309 304 301 300 301 301 301 301 300 296 293 290 284 283 290 293 290 289 287 282 275 272 271 267 262 265 269 266 262 258 258 269 270 253 247 250 248 250 260 267 270 275 277 277 280 282 279 273
213 213 214 216 219 224 229 236 244 252 261 268 276 284 292 300 305 308 309 310 313 315 317 318 319 320 320 321 323 325 325 326 328 330 330 327 317 307 303 303 302 301 299 297 296 296 294 290 289 287 284 287 290 290 289 288 286 280 271 266 265 263 263 263 264 265 261 257 261 265 256 247 248 250 253 262 269 272 275 276 276 278 277 276 274
212 212 213 215 218 223 229 236 244 252 261 269 277 287 295 301 306 307 308 311 314 316 318 319 320 320 320 321 323 325 326 327 330 332 333 330 322 309 303 302 301 299 297 295 293 292 291 288 286 285 284 282 283 286 289 291 291 287 277 268 265 264 261 258 258 261 261 258 258 262 264 258 254 255 256 264 272 274 276 276 273 273 273 272 272
211 210 211 214 217 222 229 236 244 253 261 270 280 288 296 302 304 306 309 312 314 317 318 319 320 320 321 322 323 324 326 329 332 335 336 335 327 312 305 303 301 298 296 294 292 290 289 288 286 284 283 282 280 281 286 290 294 291 282 272 268 267 260 254 255 255 256 258 258 259 264 263 261 262 261 265 272 274 276 277 275 276 274 273 274
209 209 210 213 217 222 229 236 244 253 261 272 282 290 297 301 303 306 310 314 315 317 318 319 320 321 322 322 322 324 328 331 335 339 339 337 329 314 308 304 301 298 295 293 293 291 289 288 287 285 285 283 280 279 282 288 291 289 281 274 271 268 261 256 255 252 250 252 254 258 262 263 263 266 264 266 270 273 277 279 281 283 279 276 275
207 208 209 213 216 222 229 236 244 254 263 274 283 290 296 299 303 307 312 315 316 317 318 319 321 323 323 322 322 326 332 336 339 341 341 339 329 316 310 307 303 300 297 295 293 291 289 288 286 286 286 284 282 280 280 284 287 283 278 276 275 269 261 258 257 252 248 249 251 256 261 260 258 259 261 266 270 273 276 280 283 285 283 282 276
206 207 209 212 216 222 229 236 245 255 266 276 283 289 294 299 303 309 314 316 316 317 318 319 322 324 324 324 325 329 334 339 341 342 343 340 328 316 313 311 308 305 301 297 295 292 290 288 287 286 286 286 285 283 280 282 283 278 274 275 277 272 263 260 260 256 252 249 249 253 258 256 253 254 258 265 269 271 275 280 282 282 284 288 279
205 206 208 211 216 222 229 237 247 258 267 276 282 288 294 299 305 311 314 315 317 317 318 320 323 325 325 327 329 331 335 341 343 344 346 340 324 316 316 314 312 310 305 301 298 296 292 290 288 288 287 285 285 283 282 282 280 276 273 272 274 272 265 263 264 263 259 253 250 253 257 257 256 256 259 264 267 270 274 276 277 278 279 282 276
203 205 208 212 216 222 229 238 248 259 269 275 282 288 294 300 308 312 314 316 317 318 319 321 323 325 327 329 332 334 337 342 345 345 347 340 325 318 318 316 314 312 309 304 302 299 296 293 290 288 287 286 285 284 282 280 277 274 272 269 269 268 266 265 267 267 265 259 255 255 256 257 258 258 260 263 266 269 269 268 271 275 275 275 272
202 205 208 211 217 221 229 239 249 260 269 276 283 291 297 303 309 313 314 316 318 318 320 322 324 328 331 332 335 339 340 343 346 347 347 342 329 321 321 318 315 313 310 308 305 302 300 297 294 292 288 287 287 285 283 280 276 272 269 267 266 265 264 263 262 263 265 262 260 259 258 257 259 261 263 265 267 267 267 267 270 272 271 271 267
201 204 207 210 216 222 229 239 249 259 269 278 287 293 300 306 310 314 316 316 317 319 321 323 326 331 334 335 339 344 344 344 346 348 347 343 332 324 322 319 316 314 312 310 308 305 303 301 299 297 293 290 289 287 285 281 277 274 270 264 262 264 264 261 259 259 260 259 258 259 260 259 261 263 265 266 267 266 266 268 269 267 267 267 260
199 202 206 210 215 221 230 238 246 258 268 280 289 296 303 308 311 315 317 316 318 320 321 324 328 333 338 341 343 346 346 345 345 347 348 344 335 327 324 321 317 316 313 311 309 307 305 303 303 304 303 298 295 291 287 283 279 276 272 265 263 264 262 260 260 259 259 259 257 256 258 260 261 263 265 266 266 267 267 267 267 265 263 258 250
199 201 204 209 214 220 229 236 244 255 266 279 290 299 305 309 313 316 317 317 318 320 323 328 332 336 341 346 346 345 346 346 346 347 348 344 335 328 324 321 320 317 314 312 311 310 307 305 307 313 313 308 304 298 291 285 280 277 273 267 264 262 258 258 259 258 257 258 258 258 259 260 261 263 265 267 266 267 267 267 266 263 257 249 239
198 201 204 209 214 220 227 234 242 252 265 278 290 300 306 310 314 316 316 317 318 321 327 332 336 340 344 347 347 345 346 347 347 349 349 343 334 328 325 323 323 320 315 313 314 314 311 309 311 315 314 310 305 298 290 284 279 275 272 269 265 260 257 256 256 256 256 255 255 257 257 259 261 262 265 267 267 268 269 270 269 261 252 244 233
197 200 203 208 214 219 225 230 238 249 262 277 290 300 306 309 312 314 315 316 319 325 332 337 341 345 346 346 346 346 345 346 348 351 349 341 333 330 328 326 326 324 319 318 320 319 314 313 315 316 314 309 303 296 286 278 272 268 266 264 263 260 257 255 253 254 255 252 252 254 255 259 260 261 265 266 268 272 274 273 270 257 248 245 235
197 200 203 208 212 217 221 224 233 246 260 277 289 298 303 307 309 311 314 317 321 328 337 342 346 347 345 345 346 345 345 346 350 352 349 342 335 332 331 330 331 331 327 324 324 320 317 319 320 318 315 313 308 299 286 275 268 265 263 260 257 255 254 253 252 252 253 251 252 253 256 261 261 261 266 268 271 277 276 270 264 251 245 246 236
196 199 203 207 210 213 217 220 228 243 259 275 288 296 301 304 307 309 314 319 325 333 341 347 349 347 344 344 344 344 345 348 351 351 348 343 339 336 334 334 336 338 336 332 328 324 324 326 325 323 324 322 315 307 298 289 280 272 265 260 256 251 249 250 250 251 251 251 253 254 256 261 263 263 267 270 273 277 273 262 254 246 240 239 234
196 199 202 205 207 209 211 214 225 241 258 274 286 294 300 304 307 312 317 322 330 339 346 350 349 345 343 343 343 344 347 350 351 349 346 342 341 339 337 337 339 342 342 338 333 330 330 332 331 331 334 329 319 314 316 309 299 286 271 260 255 251 248 248 248 251 252 251 252 256 258 259 260 262 266 270 273 273 265 252 246 243 238 234 230
195 197 200 202 204 205 205 209 221 238 260 276 286 295 301 306 311 317 323 329 337 345 349 349 347 344 342 341 340 343 348 351 351 347 342 341 341 340 339 340 341 343 341 337 334 334 336 339 342 344 344 339 335 340 348 339 319 301 284 267 258 257 254 249 247 250 253 251 252 257 259 257 258 261 266 272 275 271 258 248 245 239 231 225 218
193 195 197 199 199 200 200 204 215 230 253 273 283 291 298 304 312 320 327 336 344 347 347 346 344 341 340 340 341 344 347 348 347 343 341 341 342 341 341 342 343 343 341 339 340 342 346 351 356 357 357 354 352 353 357 0 353 328 303 280 267 263 258 251 248 249 252 253 256 259 260 259 260 264 269 274 276 269 254 246 241 228 214 207 200
191 192 194 195 195 195 197 200 208 220 241 265 280 290 297 303 313 322 330 339 347 346 343 343 342 338 337 338 342 346 346 345 345 345 346 347 347 346 345 345 346 347 346 345 348 353 358 3 6 5 4 3 1 358 358 359 355 344 331 309 288 275 261 249 248 253 255 256 259 261 263 264 264 267 272 276 278 269 252 241 231 213 198 191 186
191 191 191 191 190 190 192 196 202 211 225 246 270 291 303 312 321 327 333 340 345 342 340 341 342 339 337 337 339 345 350 349 347 347 349 350 350 352 352 350 351 354 355 354 357 5 10 11 10 8 7 6 4 2 1 0 357 349 338 323 310 302 282 263 257 260 262 261 261 260 262 264 265 268 274 278 280 269 248 231 218 203 189 183 180
192 191 190 189 187 187 189 192 198 206 215 224 238 260 285 308 325 335 338 338 338 338 341 343 343 342 341 339 339 345 353 354 351 350 352 354 354 354 356 358 358 359 360 1 6 15 18 14 10 9 8 7 6 4 2 0 359 355 348 335 318 312 306 293 281 271 265 264 263 262 262 263 265 270 275 279 281 266 241 223 208 197 185 178 178
192 193 191 188 186 186 187 191 196 201 211 223 231 240 250 269 302 327 331 331 334 339 344 345 344 345 346 343 343 349 354 354 354 355 356 356 357 356 357 2 7 10 13 15 18 21 21 16 12 10 8 6 6 6 4 2 360 357 354 347 335 320 307 300 295 283 271 270 269 267 267 268 269 275 279 280 279 259 236 222 207 195 186 177 174
189 193 191 187 185 185 185 190 194 199 208 220 232 249 265 280 291 270 235 289 315 331 338 341 345 349 351 349 348 353 358 358 357 358 359 360 0 358 358 3 10 16 22 25 25 24 21 16 13 11 9 6 6 6 5 4 2 359 354 351 345 335 320 306 300 292 283 281 279 277 278 278 276 280 283 280 275 251 230 223 209 193 188 182 175
184 188 187 184 184 183 184 188 191 196 207 215 231 258 281 305 324 338 346 345 346 346 345 351 356 356 357 358 354 355 2 3 359 359 3 4 3 1 3 7 11 15 19 24 26 25 22 17 14 12 10 7 7 7 6 5 4 1 358 354 348 342 334 323 312 300 290 287 285 284 287 287 281 282 285 278 269 248 226 221 212 196 189 187 183
186 187 185 183 182 182 183 186 187 193 202 210 224 254 292 321 336 349 353 352 353 353 353 0 4 1 2 2 357 357 6 7 1 2 7 9 8 8 11 14 16 18 20 23 25 25 23 19 15 14 12 9 7 8 8 6 5 4 1 357 353 349 343 335 325 314 299 290 287 285 289 291 286 284 285 276 263 246 224 217 214 199 189 188 186
186 186 183 181 180 181 182 183 185 189 194 200 210 228 283 331 345 355 356 355 354 353 353 358 1 3 6 4 358 4 13 10 3 5 9 10 12 16 18 18 19 20 21 23 23 24 24 21 17 15 14 11 8 7 8 8 8 6 4 0 357 354 349 340 331 323 307 293 288 284 285 291 291 288 285 273 257 245 227 216 212 202 191 187 185
182 182 181 179 179 181 181 181 183 184 186 190 192 190 210 344 2 2 357 357 356 354 355 356 356 0 6 4 1 10 14 7 0 4 10 14 18 21 21 21 20 20 21 22 23 24 23 22 19 17 15 13 10 8 8 9 9 7 5 3 359 355 351 343 334 324 310 294 287 283 282 288 292 291 286 273 253 242 230 216 211 206 194 187 186
176 177 178 179 180 180 179 179 180 180 180 183 178 168 163 78 31 13 0 0 359 355 356 358 359 1 2 359 3 11 12 5 3 10 16 20 23 23 21 20 20 20 21 22 23 24 24 23 21 19 17 16 13 10 9 9 9 8 6 4 1 356 353 349 341 331 319 300 287 283 281 283 287 289 285 273 251 239 231 219 212 207 197 187 186
178 177 177 179 180 179 177 177 177 176 175 174 170 163 152 120 77 40 15 7 1 358 359 360 2 4 1 359 4 9 7 4 8 13 16 21 23 24 22 20 19 20 21 22 23 24 24 24 23 21 19 18 15 12 9 9 9 9 8 6 3 0 356 353 347 338 327 311 294 286 281 279 281 284 280 271 253 237 230 223 214 208 201 192 188
179 178 177 177 179 179 177 174 173 174 173 169 167 163 149 127 106 79 49 22 7 3 3 3 5 6 4 2 5 5 2 2 7 12 16 19 22 23 23 21 19 20 21 21 22 24 24 24 25 23 21 20 18 14 12 12 11 10 9 8 6 3 359 355 350 343 333 318 302 291 283 275 273 273 270 266 256 239 228 223 217 210 204 198 194
179 178 177 177 177 177 176 173 171 172 171 169 166 161 148 136 123 102 80 51 26 15 10 7 6 6 5 4 3 1 360 1 5 10 14 17 19 21 21 21 20 20 21 21 23 24 24 25 26 25 22 21 19 16 13 12 12 12 11 10 8 5 0 356 352 345 336 324 309 297 287 276 269 265 260 258 253 242 228 221 218 212 206 201 198
176 176 177 177 176 174 172 171 172 171 170 169 166 158 147 141 128 111 96 71 48 32 20 14 10 6 5 5 2 0 0 1 4 9 13 15 17 18 19 19 18 18 19 21 23 24 25 25 26 26 24 23 22 19 14 12 14 15 14 12 9 5 1 357 353 347 340 330 316 300 288 276 266 260 254 250 247 241 230 222 217 212 206 202 199
175 175 176 177 175 172 170 170 172 172 169 168 166 158 148 143 134 120 109 85 60 43 29 23 14 7 6 6 4 2 2 3 6 9 11 13 15 16 16 18 17 16 16 19 21 24 26 26 26 26 26 26 26 23 17 15 17 18 16 14 10 6 2 358 354 348 340 332 322 308 292 278 264 254 248 244 243 239 230 222 217 212 207 203 200
175 176 176 176 174 172 171 171 172 172 171 167 164 158 150 144 137 128 117 95 67 47 32 23 16 10 9 8 7 7 6 6 8 11 11 12 14 15 15 16 16 14 14 16 19 23 26 27 26 26 26 26 27 25 21 18 18 18 18 15 10 6 3 359 353 348 341 333 325 315 299 281 266 253 244 239 238 237 232 225 218 213 207 203 201
175 175 176 177 174 171 171 172 171 170 170 167 163 158 152 147 142 135 126 109 78 48 31 20 15 11 9 10 11 11 9 9 11 13 13 13 13 14 14 15 16 15 14 14 16 20 24 27 27 27 26 25 26 26 24 21 19 18 18 17 13 8 5 1 355 351 347 338 329 319 306 289 271 256 245 238 234 234 232 227 222 216 210 205 203
173 174 175 175 173 171 172 173 171 170 169 166 163 159 153 149 147 141 134 125 97 55 31 20 17 14 12 15 15 13 12 13 15 16 15 14 14 15 15 15 17 16 15 14 14 17 21 25 27 28 27 26 26 25 24 21 18 17 18 18 15 11 8 5 1 358 354 345 334 324 313 297 278 261 248 239 234 233 231 228 224 220 216 211 207
172 174 174 174 174 174 174 172 171 170 169 165 163 160 156 153 152 146 140 134 114 69 35 25 24 19 16 17 18 17 17 17 17 18 18 16 15 16 16 16 17 17 15 14 14 15 18 23 26 28 28 28 27 26 23 20 18 18 19 18 16 14 13 11 8 5 1 355 345 333 319 303 284 265 251 241 235 234 233 230 226 222 218 215 212
173 174 173 173 174 174 174 172 171 169 167 165 164 163 160 158 156 150 145 141 129 95 56 40 34 29 23 20 20 21 23 22 21 22 21 18 17 18 18 19 19 18 16 14 14 13 16 20 24 28 30 29 28 27 23 18 16 18 18 17 16 16 17 18 16 12 8 6 0 347 330 312 289 267 251 241 235 235 236 235 231 225 220 216 213
172 173 174 174 174 173 174 173 171 169 168 167 166 165 165 163 159 155 151 147 138 117 84 62 52 41 34 28 23 25 27 26 25 25 24 22 20 19 18 20 21 20 18 16 14 13 15 17 22 27 30 30 30 28 24 18 15 17 18 17 17 17 18 21 21 19 17 16 13 5 351 332 304 271 249 238 232 230 231 233 232 229 224 218 214
171 172 174 175 175 175 174 173 171 170 170 168 167 168 168 165 161 159 156 149 143 130 102 81 66 53 43 34 29 29 30 28 26 26 25 23 22 20 20 20 21 21 20 18 15 14 14 16 20 25 29 31 31 30 25 19 16 16 17 18 18 18 19 21 23 24 24 25 24 22 16 3 341 303 259 239 229 225 225 225 227 228 227 224 219